Location: Budapest
(47.4979°N, 19.0402°E)
Time: 20:21:07
(UTC+01:00)

N. Korean satellite - Visible Passes

Search period start: 10 December 2018 00:00
Search period end: 20 December 2018 00:00
Orbit: 456 x 511 km, 97.2° (Epoch: 09 December)

Date Brightness Start Highest point End Pass type
(mag) Time Alt. Az. Time Alt. Az. Time Alt. Az.
10 Dec 8.5 05:35:24 10° NNE 05:38:37 32° E 05:41:51 10° SSE visible
10 Dec 8.7 17:47:53 10° SSW 17:50:54 28° W 17:53:54 10° NW visible
11 Dec 9.6 05:11:28 10° NE 05:13:54 17° E 05:16:21 10° SE visible
11 Dec 7.1 06:44:14 10° N 06:47:29 35° WNW 06:50:45 10° SW visible
11 Dec 7.1 17:22:51 10° S 17:26:14 57° W 17:29:39 10° NNW visible
12 Dec 6.5 06:19:27 10° N 06:23:00 70° WNW 06:26:34 10° SSW visible
12 Dec 6.3 16:58:15 10° SSE 17:01:40 68° ENE 17:05:06 10° N visible
13 Dec 7.3 05:54:55 10° NNE 05:58:25 57° E 06:01:58 10° S visible
13 Dec 7.1 16:34:04 10° SE 16:37:10 33° ENE 16:40:19 10° N visible
13 Dec 9.6 18:08:28 10° SW 18:10:46 17° W 18:13:03 10° NW visible
14 Dec 8.7 05:30:38 10° NE 05:33:46 29° E 05:36:57 10° SSE visible
14 Dec 8.4 17:42:56 10° SSW 17:46:02 31° W 17:49:09 10° NNW visible
15 Dec 9.8 05:06:48 10° NE 05:09:02 16° E 05:11:18 10° SE visible
15 Dec 7.0 06:39:18 10° N 06:42:40 40° WNW 06:46:04 10° SW visible
15 Dec 6.9 17:17:58 10° S 17:21:22 66° WSW 17:24:49 10° NNW visible
16 Dec 6.5 06:14:35 10° N 06:18:10 80° WNW 06:21:47 10° SSW visible
16 Dec 6.4 16:53:26 10° SSE 16:56:48 59° ENE 17:00:13 10° N visible
17 Dec 7.6 05:50:03 10° NNE 05:53:34 50° E 05:57:06 10° S visible
17 Dec 7.3 16:29:18 10° SE 16:32:19 29° ENE 16:35:22 10° N visible
17 Dec 9.4 18:03:21 10° SW 18:05:51 19° W 18:08:22 10° NW visible
18 Dec 8.9 05:25:49 10° NE 05:28:54 26° E 05:32:00 10° SSE visible
18 Dec 8.1 17:37:56 10° SSW 17:41:07 36° W 17:44:21 10° NNW visible
19 Dec 9.9 05:02:07 10° ENE 05:04:08 14° E 05:06:10 10° SE visible
19 Dec 6.9 06:34:21 10° N 06:37:49 45° WNW 06:41:19 10° SW visible
19 Dec 6.6 17:13:02 10° S 17:16:28 76° WSW 17:19:56 10° NNW visible
